FW8889 Weather Reports


Display with metric or nautical units.
time (UTC)temp
F
wind
direction
speed
MPH
gust
MPH
rain 1hr
in
rain 24hr
in
rain mn
in
humidity
%
barometer
mb
20260906064549 60 0 0.0 1.0 0.00 0.03 0.00 80 1014.2
20260906063056 60 0 0.0 1.0 0.00 0.03 0.00 80 1014.0
20260906061556 61 0 0.0 0.0 0.00 0.03 0.00 80 1014.1
20260906060150 61 0 0.0 0.0 0.00 0.03 0.00 80 1014.0
20260906054611 61 0 0.0 0.0 0.00 0.03 0.00 80 1013.9
20260906053102 61 0 0.0 0.0 0.00 0.03 0.00 80 1014.1
20260906051602 61 0 0.0 0.0 0.00 0.03 0.00 80 1014.1
20260906050105 61 0 0.0 0.0 0.00 0.03 0.00 80 1014.1
20260906044600 61 0 0.0 0.0 0.00 0.03 0.00 80 1014.0
20260906043057 61 0 0.0 0.0 0.00 0.03 0.00 80 1014.0
20260906041601 61 0 0.0 0.0 0.00 0.03 0.00 80 1014.1
20260906040052 61 0 0.0 0.0 0.00 0.03 0.00 80 1014.0
20260906034601 61 0 0.0 0.0 0.00 0.03 0.03 81 1013.9
20260906033055 61 0 0.0 0.0 0.00 0.03 0.03 81 1013.8
20260906031625 61 0 0.0 0.0 0.00 0.03 0.03 81 1013.8
20260906030051 61 0 0.0 0.0 0.00 0.03 0.03 81 1013.8
20260906024557 61 0 0.0 0.0 0.00 0.03 0.03 82 1013.7
20260906023108 61 0 0.0 0.0 0.00 0.03 0.03 81 1013.7
20260906021552 61 0 0.0 0.0 0.00 0.03 0.03 81 1013.7
20260906014555 62 0 0.0 0.0 0.00 0.03 0.03 82 1013.8
20260906013104 62 0 0.0 0.0 0.00 0.03 0.03 82 1013.7
20260906011556 62 0 0.0 0.0 0.00 0.03 0.03 83 1013.8
20260906010104 62 0 0.0 0.0 0.00 0.03 0.03 83 1013.6
20260906004558 62 0 0.0 0.0 0.00 0.03 0.03 83 1013.6
20260906003052 62 0 0.0 0.0 0.00 0.03 0.03 83 1013.5
20260906001559 62 0 0.0 0.0 0.00 0.03 0.03 83 1013.4
20260906000108 62 0 0.0 0.0 0.00 0.03 0.03 84 1013.3
20260905234556 62 0 0.0 0.0 0.00 0.03 0.03 84 1013.2
20260905233056 62 0 0.0 0.0 0.00 0.03 0.03 84 1013.1
20260905231551 63 0 0.0 0.0 0.00 0.03 0.03 85 1013.1
20260905230059 63 0 0.0 0.0 0.00 0.03 0.03 85 1013.0
20260905224603 63 0 0.0 0.0 0.00 0.03 0.03 85 1012.9
20260905223100 63 0 0.0 1.0 0.00 0.03 0.03 85 1012.9
20260905221600 63 0 0.0 1.0 0.00 0.03 0.03 85 1012.9
20260905220054 63 0 0.0 1.0 0.00 0.03 0.03 85 1012.7
20260905214558 63 0 0.0 1.0 0.00 0.03 0.03 85 1012.4
20260905213104 63 0 0.0 1.0 0.00 0.03 0.03 84 1012.3
20260905211554 63 0 0.0 1.0 0.00 0.03 0.03 85 1012.4
20260905210104 63 0 0.0 2.0 0.01 0.03 0.03 85 1012.4
20260905204548 64 0 0.0 1.0 0.03 0.03 0.03 85 1012.2
20260905203100 64 0 0.0 1.0 0.03 0.03 0.03 85 1012.3
20260905201552 65 0 0.0 1.0 0.03 0.03 0.03 85 1012.3
20260905200130 66 0 0.0 2.0 0.02 0.02 0.02 82 1012.2
20260905194600 68 146 1.0 3.0 0.00 0.00 0.00 78 1012.0
20260905193104 68 142 0.0 3.0 0.00 0.00 0.00 78 1011.8
20260905191552 68 136 1.0 3.0 0.00 0.00 0.00 77 1012.0
20260905184554 68 225 1.0 3.0 0.00 0.00 0.00 76 1011.7
20260905183055 68 0 0.0 2.0 0.00 0.00 0.00 77 1011.7
20260905181603 68 0 0.0 3.0 0.00 0.00 0.00 77 1011.8
20260905180111 68 150 1.0 2.0 0.00 0.00 0.00 78 1011.7
20260905174556 67 150 1.0 4.0 0.00 0.00 0.00 77 1011.8
20260905173112 67 0 0.0 4.0 0.00 0.00 0.00 80 1011.7
20260905171555 66 0 1.0 3.0 0.00 0.00 0.00 81 1011.7
20260905170105 67 200 0.0 3.0 0.00 0.00 0.00 80 1011.7
20260905164603 69 198 1.0 3.0 0.00 0.00 0.00 77 1011.6
20260905163055 69 188 0.0 2.0 0.00 0.00 0.00 76 1011.3
20260905161551 69 196 0.0 2.0 0.00 0.00 0.00 77 1011.2
20260905154602 69 0 0.0 2.0 0.00 0.00 0.00 76 1011.3
20260905153101 69 0 0.0 3.0 0.00 0.00 0.00 76 1011.2
20260905151604 69 0 0.0 2.0 0.00 0.00 0.00 77 1011.2
20260905144556 68 0 0.0 2.0 0.00 0.00 0.00 78 1011.3
20260905143103 68 0 0.0 2.0 0.00 0.00 0.00 79 1011.2
20260905141550 68 0 0.0 2.0 0.00 0.00 0.00 79 1011.4
20260905140103 68 236 0.0 2.0 0.00 0.00 0.00 80 1011.2
20260905134601 68 0 0.0 2.0 0.00 0.00 0.00 81 1011.2
20260905133101 66 0 0.0 1.0 0.00 0.00 0.00 82 1010.9
20260905131557 65 0 0.0 3.0 0.00 0.00 0.00 83 1010.7
20260905130051 65 307 0.0 1.0 0.00 0.00 0.00 84 1010.8
20260905124555 64 0 0.0 2.0 0.00 0.00 0.00 85 1010.6
20260905123103 64 0 0.0 1.0 0.00 0.00 0.00 85 1010.7
20260905121553 63 0 0.0 1.0 0.00 0.00 0.00 85 1010.3
20260905120100 63 0 0.0 1.0 0.00 0.00 0.00 84 1010.3
20260905114609 63 0 0.0 1.0 0.00 0.00 0.00 84 1010.0
20260905113059 62 0 0.0 2.0 0.00 0.00 0.00 83 1009.9
20260905111639 61 319 0.0 2.0 0.00 0.00 0.00 81 1009.8
20260905110050 60 0 0.0 1.0 0.00 0.00 0.00 82 1009.8
20260905104549 60 0 0.0 0.0 0.00 0.00 0.00 82 1009.7
20260905103045 59 0 0.0 0.0 0.00 0.00 0.00 83 1009.6
20260905101555 60 0 0.0 0.0 0.00 0.00 0.00 84 1009.4
20260905100058 60 0 0.0 0.0 0.00 0.00 0.00 84 1009.4
20260905094548 60 0 0.0 0.0 0.00 0.00 0.00 84 1009.3
20260905093115 60 0 0.0 0.0 0.00 0.00 0.00 84 1009.2
20260905091554 60 0 0.0 0.0 0.00 0.00 0.00 85 1009.2
20260905090054 60 0 0.0 0.0 0.00 0.00 0.00 85 1009.1
20260905084548 60 0 0.0 0.0 0.00 0.00 0.00 85 1009.1
20260905083056 61 0 0.0 0.0 0.00 0.00 0.00 85 1009.0
20260905081553 61 0 0.0 2.0 0.00 0.00 0.00 85 1009.0
20260905080052 61 0 0.0 0.0 0.00 0.00 0.00 86 1009.0
20260905074550 62 0 0.0 1.0 0.00 0.00 0.00 85 1008.9
20260905073056 62 0 0.0 1.0 0.00 0.00 0.00 85 1009.1
20260905071553 62 0 0.0 0.0 0.00 0.00 0.00 85 1009.1
20260905070058 63 0 0.0 0.0 0.00 0.00 0.00 85 1009.2